THOR ABLESTAR DEB, 357

Orbit data source: Space-Track

THOR ABLESTAR DEB, 357 is space debris in LEO originally from a launch on Thu, 29 Jun 1961 UTC launched from the Air Force Eastern Test Range (AFETR). Debris objects in space refer to the collection of defunct objects orbiting the Earth. Examples of debris include non-operational satellites, rocket bodies, and fragments generated from explosions, collisions, or faulty payload assembly.

Loading next visibility...
Identifier
357, 1961-015DX
Orbit
LEO
Country
Flag of USUS
Related business
Manufacturer
Unknown
Mission
Spacecraft
Bus & Motor
Unknown
Mass
Unknown
Launch date (UTC)
1961-06-29 (64 years ago)
Launch vehicle
Unknown
Launch site
Air Force Eastern Test Range (AFETR)
Object type
Payload
Rocket body
Debris
Shape & HBR
Unknown shape, 0.1 m
Radar Cross Section
Small (<0.1 m²)

Expand to show TLE details & history
Last TLE update: 22 hours ago

TLE from 22 hours ago
0 THOR ABLESTAR DEB
1 00357U 61015DX  25310.80915693  .00001553  00000-0  94128-3 0  9991
2 00357  66.8077  85.9145 0011577 324.8895  35.1429 14.08995128264523
Epoch: 2025-11-06T19:25Z
TLE epoch observation values (Epoch: 2025-11-06T19:25:11.158Z)
Latitude
-0.00004°
Longitude
108.35584°
Altitude
858.055 km
Speed
7.427 km/s
True Right ascension
05h 43m 39s
True Declination
0° 00' 00"
Sunlit
Object was in full shadow at epoch
Visualization orbit readout
Latitude
Unknown
Longitude
Unknown
Altitude
Unknown
Speed
Unknown
Apparent Right ascension
Unknown
Apparent Declination
Unknown
Sunlit
N/A
Visualization observer readout
Local Sidereal Time
13:28:12
Azimuth
Unknown
Elevation
Unknown
Doppler factor
Unknown
Orbital elements
Apogee altitude
869.572 km
Perigee altitude
852.81 km
Semi-major axis
7,239.328 km
Eccentricity
0.00116
Inclination
66.8077°
RAAN
85.9145°
Arg. of periapsis
324.8895°
True anomaly
35.21935°
Mean anomaly
35.1429°
Eccentric anomaly
35.18112°
Mean motion
3.52367 °/min
Orbital period
102.17 mins
BSTAR
0.00094128
Loading maneuver chart data...
Computing Atmospheric mass density...

Documentation

Showing up to 5 results
|